Weather History for Buckland, AK

Change the Weather History Date:

Friday, March 15, 2013

  Actual Average (PASK) Record (PASK)
Temperature  
Mean Temperature 5 °F -  
Max Temperature 12 °F 6 °F 33 °F (1999)
Min Temperature -2 °F -4 °F -34 °F (2003)
Degree Days  
Heating Degree Days 60    
Moisture  
Dew Point -4 °F    
Average Humidity 60    
Maximum Humidity 100    
Minimum Humidity 30    
Precipitation  
Precipitation 0.00 in - - ()
Sea Level Pressure  
Sea Level Pressure 30.00 in    
Wind  
Wind Speed 16 mph (SE)    
Max Wind Speed 32 mph    
Max Gust Speed 41 mph    
Visibility 10 miles    
Events      
Averages and records for this station are not official NWS values.
T = Trace of Precipitation, MM = Missing Value Source: NWS Daily Summary

Daily Weather History Graph

Daily Weather History Graph

Search for Another Location

Airport:

Trip Planner

Search our weather history database for the weather conditions in past years. The results will help you decide how hot, cold, wet, or windy it might be!

Date:

Astronomy

Mar. 15, 2013 Rise Set
Actual Time 9:02 AM AKDT 8:46 PM AKDT
Civil Twilight 8:11 AM AKDT 9:37 PM AKDT
Nautical Twilight 7:09 AM AKDT 10:39 PM AKDT
Astronomical Twilight 6:00 AM AKDT 11:49 PM AKDT
Moon 9:08 AM AKDT (3/15) 1:57 AM AKDT (3/15)
Length of Visible Light 13h 26m
Length of Day
11h 44m
Waxing Crescent, 16% of the Moon is Illuminated
Mar 15
Waxing Crescent
Mar 19
First Quarter
Mar 27
Full
Apr 2
Last Quarter
Apr 10
New

Hourly Weather History & Observations

Time (AKDT) Temp. Windchill Dew Point Humidity Pressure Visibility Wind Dir Wind Speed Gust Speed Precip Events Conditions
12:16 AM 6.8 °F -10.7 °F -2.2 °F 67% 30.15 in 10.0 mi SE 15.0 mph - N/A   Unknown
12:36 AM 8.6 °F -10.0 °F -2.2 °F 62% 30.15 in 10.0 mi East 18.4 mph 25.3 mph N/A   Unknown
12:56 AM 10.4 °F -12.3 °F -0.4 °F 62% 30.13 in 9.0 mi ESE 32.2 mph 41.4 mph N/A   Unknown
1:16 AM 8.6 °F -11.4 °F -5.8 °F 52% 30.13 in 10.0 mi ESE 21.9 mph 33.4 mph N/A   Unknown
1:36 AM 8.6 °F -2.6 °F -2.2 °F 62% 30.16 in 10.0 mi SW 6.9 mph - N/A   Unknown
1:56 AM 8.6 °F -13.1 °F 1.4 °F 73% 30.13 in 10.0 mi East 26.5 mph 33.4 mph N/A   Unknown
2:16 AM 8.6 °F -11.4 °F -9.4 °F 44% 30.14 in 10.0 mi East 21.9 mph 32.2 mph N/A   Unknown
2:36 AM 8.6 °F -7.7 °F -4.0 °F 57% 30.15 in 10.0 mi SE 13.8 mph - N/A   Unknown
2:56 AM 6.8 °F -9.3 °F -2.2 °F 67% 30.15 in 10.0 mi SSE 12.7 mph - N/A   Unknown
3:16 AM 8.6 °F -6.3 °F -7.6 °F 48% 30.15 in 10.0 mi ESE 11.5 mph 23.0 mph N/A   Unknown
3:36 AM 6.8 °F -8.6 °F -7.6 °F 52% 30.14 in 10.0 mi ESE 11.5 mph - N/A   Unknown
3:56 AM 5.0 °F -10.8 °F -5.8 °F 61% 30.13 in 10.0 mi ESE 11.5 mph - N/A   Unknown
4:16 AM 6.8 °F -12.9 °F -4.0 °F 61% 30.10 in 10.0 mi East 19.6 mph - N/A   Unknown
4:36 AM 6.8 °F -12.9 °F -5.8 °F 56% 30.09 in 10.0 mi East 19.6 mph 25.3 mph N/A   Unknown
4:56 AM 5.0 °F -10.8 °F -7.6 °F 56% 30.08 in 10.0 mi SE 11.5 mph - N/A   Unknown
5:16 AM 3.2 °F -6.2 °F -5.8 °F 66% 30.10 in 10.0 mi ESE 4.6 mph - N/A   Unknown
5:36 AM 3.2 °F -15.3 °F -7.6 °F 61% 30.07 in 10.0 mi SE 15.0 mph - N/A   Unknown
5:56 AM 1.4 °F -6.2 °F -9.4 °F 61% 30.09 in 10.0 mi WSW 3.5 mph - N/A   Unknown
6:16 AM 1.4 °F -14.5 °F -5.8 °F 72% 30.08 in 10.0 mi SSE 10.4 mph - N/A   Unknown
6:36 AM 1.4 °F -16.1 °F -11.2 °F 56% 30.07 in 10.0 mi ESE 12.7 mph - N/A   Unknown
6:56 AM 1.4 °F -9.9 °F -7.6 °F 66% 30.08 in 10.0 mi South 5.8 mph - N/A   Unknown
7:16 AM 1.4 °F -14.5 °F -9.4 °F 61% 30.08 in 10.0 mi ESE 10.4 mph - N/A   Unknown
7:36 AM -2.2 °F -15.6 °F -14.8 °F 55% 30.07 in 10.0 mi SE 6.9 mph - N/A   Unknown
7:56 AM 1.4 °F -14.5 °F 1.4 °F 100% 30.06 in 10.0 mi SE 10.4 mph - N/A   Unknown
8:16 AM 1.4 °F -17.6 °F -14.8 °F 47% 30.06 in 10.0 mi SE 15.0 mph - N/A   Unknown
8:36 AM 1.4 °F -17.6 °F -11.2 °F 56% 30.05 in 10.0 mi SE 15.0 mph - N/A   Unknown
8:56 AM 1.4 °F -18.2 °F -7.6 °F 66% 30.04 in 10.0 mi SE 16.1 mph - N/A   Unknown
9:16 AM -0.4 °F -19.2 °F -16.6 °F 46% 30.04 in 10.0 mi ESE 13.8 mph - N/A   Unknown
9:36 AM 3.2 °F -15.9 °F -2.2 °F 78% 30.03 in 10.0 mi ESE 16.1 mph - N/A   Unknown
9:56 AM 3.2 °F -16.5 °F -16.6 °F 39% 30.03 in 10.0 mi ESE 17.3 mph - N/A   Unknown
10:16 AM 1.4 °F -15.3 °F -9.4 °F 61% 30.02 in 10.0 mi SE 11.5 mph - N/A   Unknown
10:36 AM -0.4 °F -18.4 °F -16.6 °F 46% 30.01 in 10.0 mi SE 12.7 mph - N/A   Unknown
10:56 AM 3.2 °F -17.1 °F - N/A% 30.01 in 10.0 mi ESE 18.4 mph 27.6 mph N/A   Unknown
11:16 AM 5.0 °F -13.6 °F -20.2 °F 30% 30.01 in 10.0 mi SE 16.1 mph - N/A   Unknown
11:36 AM 5.0 °F -10.8 °F 1.4 °F 85% 30.03 in 10.0 mi South 11.5 mph - N/A   Unknown
11:56 AM 5.0 °F -11.6 °F -11.2 °F 47% 30.03 in 10.0 mi SE 12.7 mph 18.4 mph N/A   Unknown
12:16 PM 6.8 °F -10.0 °F -5.8 °F 56% 30.02 in 10.0 mi SE 13.8 mph 20.7 mph N/A   Unknown
12:36 PM 6.8 °F -5.9 °F -5.8 °F 56% 30.02 in 10.0 mi SE 8.1 mph - N/A   Unknown
12:56 PM 6.8 °F -11.3 °F -5.8 °F 56% 30.00 in 10.0 mi ESE 16.1 mph - N/A   Unknown
1:16 PM 8.6 °F -10.0 °F -2.2 °F 62% 29.99 in 10.0 mi East 18.4 mph - N/A   Unknown
1:36 PM 8.6 °F -8.3 °F -4.0 °F 57% 29.98 in 10.0 mi ESE 15.0 mph - N/A   Unknown
1:56 PM 8.6 °F -11.9 °F -2.2 °F 62% 29.97 in 10.0 mi ESE 23.0 mph 28.8 mph N/A   Unknown
2:16 PM 8.6 °F -9.5 °F -4.0 °F 57% 29.97 in 10.0 mi SE 17.3 mph - N/A   Unknown
2:36 PM 8.6 °F -5.5 °F -4.0 °F 57% 29.97 in 10.0 mi SE 10.4 mph - N/A   Unknown
2:56 PM 10.4 °F -4.8 °F -2.2 °F 57% 29.96 in 10.0 mi SE 12.7 mph 16.1 mph N/A   Unknown
3:16 PM 10.4 °F -4.8 °F -0.4 °F 62% 29.95 in 10.0 mi SE 12.7 mph - N/A   Unknown
3:36 PM 10.4 °F -6.0 °F -0.4 °F 62% 29.94 in 10.0 mi SE 15.0 mph 20.7 mph N/A   Unknown
3:56 PM 10.4 °F -4.8 °F -0.4 °F 62% 29.93 in 10.0 mi SSE 12.7 mph - N/A   Unknown
4:16 PM 10.4 °F -7.2 °F 1.4 °F 67% 29.92 in 10.0 mi ESE 17.3 mph 20.7 mph N/A   Unknown
4:36 PM 12.2 °F -3.7 °F -0.4 °F 57% 29.91 in 10.0 mi ESE 15.0 mph 21.9 mph N/A   Unknown
4:56 PM 12.2 °F -4.8 °F 1.4 °F 62% 29.91 in 10.0 mi ESE 17.3 mph 21.9 mph N/A   Unknown
5:16 PM 12.2 °F -4.3 °F -0.4 °F 57% 29.90 in 10.0 mi ESE 16.1 mph 19.6 mph N/A   Unknown
5:36 PM 12.2 °F -3.7 °F -0.4 °F 57% 29.89 in 10.0 mi East 15.0 mph 23.0 mph N/A   Unknown
5:56 PM 12.2 °F -4.3 °F -0.4 °F 57% 29.88 in 10.0 mi ESE 16.1 mph 20.7 mph N/A   Unknown
6:16 PM 12.2 °F -3.1 °F -0.4 °F 57% 29.88 in 10.0 mi ESE 13.8 mph - N/A   Unknown
6:36 PM 12.2 °F -1.8 °F -0.4 °F 57% 29.88 in 10.0 mi SE 11.5 mph - N/A   Unknown
6:56 PM 10.4 °F -4.1 °F 1.4 °F 67% 29.88 in 10.0 mi ESE 11.5 mph - N/A   Unknown
7:16 PM 10.4 °F -4.1 °F -0.4 °F 62% 29.87 in 10.0 mi SE 11.5 mph - N/A   Unknown
7:36 PM 10.4 °F -4.1 °F -0.4 °F 62% 29.87 in 10.0 mi ESE 11.5 mph - N/A   Unknown
7:56 PM 10.4 °F -5.4 °F -0.4 °F 62% 29.86 in 10.0 mi ESE 13.8 mph - N/A   Unknown
8:16 PM 10.4 °F -6.6 °F -0.4 °F 62% 29.86 in 10.0 mi ESE 16.1 mph - N/A   Unknown
8:36 PM 8.6 °F -7.0 °F -2.2 °F 62% 29.86 in 10.0 mi East 12.7 mph - N/A   Unknown
9:56 PM 8.6 °F -12.7 °F 1.4 °F 73% 29.85 in 10.0 mi ESE 25.3 mph 31.1 mph N/A   Unknown
10:16 PM 10.4 °F -8.2 °F -0.4 °F 62% 29.86 in 10.0 mi ESE 19.6 mph 26.5 mph N/A   Unknown
10:36 PM 8.6 °F -9.5 °F -2.2 °F 62% 29.86 in 10.0 mi ESE 17.3 mph 24.2 mph N/A   Unknown
10:56 PM 10.4 °F -8.2 °F -0.4 °F 62% 29.86 in 10.0 mi ESE 19.6 mph 31.1 mph N/A   Unknown
11:16 PM 8.6 °F -12.3 °F 1.4 °F 73% 29.85 in 10.0 mi ESE 24.2 mph 31.1 mph N/A   Unknown
11:36 PM 8.6 °F -12.7 °F -2.2 °F 62% 29.85 in 10.0 mi ESE 25.3 mph 32.2 mph N/A   Unknown
11:56 PM 8.6 °F -13.1 °F -0.4 °F 67% 29.84 in 10.0 mi ESE 26.5 mph 34.5 mph N/A   Unknown